Time,TemperatureF,DewpointF,PressureIn,WindDirection,WindDirectionDegrees,WindSpeedMPH,WindSpeedGustMPH,Humidity,HourlyPrecipIn,Conditions,Clouds,dailyrainin,SoftwareType,DateUTC
2013-10-11 00:00:00,83.6,77.9,29.88,ENE,73,4.0,11.0,83,0.00,,,0.00,VWS V15.00,2013-10-11 06:00:00,
2013-10-11 00:02:00,83.6,77.9,29.88,NE,47,3.0,6.0,83,0.00,,,0.00,VWS V14.01,2013-10-11 06:02:00,
2013-10-11 00:07:00,83.5,78.2,29.88,ENE,60,4.0,10.0,84,0.00,,,0.00,VWS V14.01,2013-10-11 06:07:00,
2013-10-11 00:12:00,83.5,78.2,29.88,North,1,8.0,10.0,84,0.00,,,0.00,VWS V14.01,2013-10-11 06:12:00,
2013-10-11 00:17:00,83.5,77.8,29.88,NE,53,3.0,11.0,83,0.00,,,0.00,VWS V14.01,2013-10-11 06:17:00,
2013-10-11 00:21:00,83.5,78.2,29.88,ENE,58,4.0,11.0,84,0.00,,,0.00,VWS V14.01,2013-10-11 06:21:00,
2013-10-11 00:26:00,83.5,78.2,29.88,NE,47,5.0,11.0,84,0.00,,,0.00,VWS V14.01,2013-10-11 06:26:00,
2013-10-11 00:30:00,83.5,78.2,29.88,NE,41,2.0,11.0,84,0.00,,,0.00,VWS V15.00,2013-10-11 06:30:00,
2013-10-11 00:31:00,83.5,78.2,29.88,NE,44,7.0,7.0,84,0.00,,,0.00,VWS V14.01,2013-10-11 06:31:00,
2013-10-11 00:36:00,83.5,78.2,29.88,NE,54,4.0,14.0,84,0.00,,,0.00,VWS V14.01,2013-10-11 06:36:00,
2013-10-11 00:41:00,83.5,78.2,29.87,NE,49,3.0,14.0,84,0.00,,,0.00,VWS V14.01,2013-10-11 06:41:00,
2013-10-11 00:46:00,83.4,78.1,29.87,NE,47,7.0,14.0,84,0.00,,,0.00,VWS V14.01,2013-10-11 06:46:00,
2013-10-11 00:51:00,83.5,78.2,29.87,ENE,73,6.0,14.0,84,0.00,,,0.00,VWS V14.01,2013-10-11 06:51:00,
2013-10-11 00:56:00,83.4,78.1,29.86,NE,49,7.0,14.0,84,0.00,,,0.00,VWS V14.01,2013-10-11 06:56:00,
2013-10-11 01:00:00,83.5,78.2,29.86,East,79,5.0,14.0,84,0.00,,,0.00,VWS V15.00,2013-10-11 07:00:00,
2013-10-11 01:01:00,83.5,78.2,29.86,ENE,68,3.0,7.0,84,0.00,,,0.00,VWS V14.01,2013-10-11 07:01:00,
2013-10-11 01:06:00,83.4,78.1,29.86,NE,46,3.0,9.0,84,0.00,,,0.00,VWS V14.01,2013-10-11 07:06:00,
2013-10-11 01:11:00,83.3,78.0,29.85,ENE,58,4.0,9.0,84,0.00,,,0.00,VWS V14.01,2013-10-11 07:11:00,
2013-10-11 01:16:00,83.2,78.2,29.85,ENE,68,5.0,9.0,85,0.00,,,0.00,VWS V14.01,2013-10-11 07:16:00,
2013-10-11 01:21:00,83.2,78.2,29.85,ENE,61,3.0,9.0,85,0.00,,,0.00,VWS V14.01,2013-10-11 07:21:00,
2013-10-11 01:26:00,83.1,78.1,29.86,East,80,6.0,9.0,85,0.00,,,0.00,VWS V14.01,2013-10-11 07:26:00,
2013-10-11 01:30:00,83.1,77.8,29.85,NNE,33,4.0,9.0,84,0.00,,,0.00,VWS V15.00,2013-10-11 07:30:00,
2013-10-11 01:31:00,83.1,77.8,29.85,NE,56,3.0,5.0,84,0.00,,,0.00,VWS V14.01,2013-10-11 07:31:00,
2013-10-11 01:36:00,83.0,78.0,29.85,ENE,68,2.0,5.0,85,0.00,,,0.00,VWS V14.01,2013-10-11 07:36:00,
2013-10-11 01:41:00,83.0,78.0,29.85,ENE,70,2.0,6.0,85,0.00,,,0.00,VWS V14.01,2013-10-11 07:41:00,
2013-10-11 01:46:00,83.0,78.0,29.84,ENE,63,1.0,6.0,85,0.00,,,0.00,VWS V14.01,2013-10-11 07:46:00,
2013-10-11 01:51:00,82.9,77.9,29.84,ENE,69,2.0,6.0,85,0.00,,,0.00,VWS V14.01,2013-10-11 07:51:00,
2013-10-11 01:56:00,82.8,78.2,29.84,NE,40,0.0,6.0,86,0.00,,,0.00,VWS V14.01,2013-10-11 07:56:00,
2013-10-11 02:00:00,82.7,78.1,29.84,ENE,58,0.0,6.0,86,0.00,,,0.00,VWS V15.00,2013-10-11 08:00:00,
2013-10-11 02:01:00,82.7,78.1,29.84,NE,43,0.0,4.0,86,0.00,,,0.00,VWS V14.01,2013-10-11 08:01:00,
2013-10-11 02:06:00,82.6,78.0,29.84,ENE,69,1.0,5.0,86,0.00,,,0.00,VWS V14.01,2013-10-11 08:06:00,
2013-10-11 02:11:00,82.6,78.0,29.84,ENE,58,0.0,5.0,86,0.00,,,0.00,VWS V14.01,2013-10-11 08:11:00,
2013-10-11 02:16:00,82.6,78.0,29.84,ESE,104,4.0,5.0,86,0.00,,,0.00,VWS V14.01,2013-10-11 08:16:00,
2013-10-11 02:21:00,82.6,78.0,29.84,NNE,26,1.0,5.0,86,0.00,,,0.00,VWS V14.01,2013-10-11 08:21:00,
2013-10-11 02:26:00,82.3,77.7,29.84,NNE,29,1.0,5.0,86,0.00,,,0.00,VWS V14.01,2013-10-11 08:26:00,
2013-10-11 02:30:00,82.1,77.8,29.84,ENE,64,2.0,6.0,87,0.00,,,0.00,VWS V15.00,2013-10-11 08:30:00,
2013-10-11 02:31:00,82.1,77.8,29.84,NNE,24,0.0,3.0,87,0.00,,,0.00,VWS V14.01,2013-10-11 08:31:00,
2013-10-11 02:36:00,81.9,77.7,29.84,NNE,29,0.0,5.0,87,0.00,,,0.00,VWS V14.01,2013-10-11 08:36:00,
2013-10-11 02:41:00,81.9,77.7,29.85,NE,53,5.0,7.0,87,0.00,,,0.00,VWS V14.01,2013-10-11 08:41:00,
2013-10-11 02:46:00,82.0,77.4,29.85,ENE,61,2.0,8.0,86,0.00,,,0.00,VWS V14.01,2013-10-11 08:46:00,
2013-10-11 02:51:00,82.1,77.2,29.84,NE,51,2.0,8.0,85,0.00,,,0.00,VWS V14.01,2013-10-11 08:51:00,
2013-10-11 02:56:00,82.1,76.8,29.84,NE,34,2.0,8.0,84,0.00,,,0.00,VWS V14.01,2013-10-11 08:56:00,
2013-10-11 03:00:00,82.0,76.7,29.84,ENE,58,2.0,8.0,84,0.00,,,0.00,VWS V15.00,2013-10-11 09:00:00,
2013-10-11 03:01:00,82.1,76.8,29.84,NE,46,4.0,5.0,84,0.00,,,0.00,VWS V14.01,2013-10-11 09:01:00,
2013-10-11 03:06:00,82.1,76.8,29.84,ENE,63,0.0,5.0,84,0.00,,,0.00,VWS V14.01,2013-10-11 09:06:00,
2013-10-11 03:11:00,82.1,77.5,29.84,North,353,0.0,5.0,86,0.00,,,0.00,VWS V14.01,2013-10-11 09:11:00,
2013-10-11 03:16:00,82.0,77.8,29.84,NE,53,3.0,5.0,87,0.00,,,0.00,VWS V14.01,2013-10-11 09:16:00,
2013-10-11 03:21:00,82.0,78.1,29.84,ENE,63,2.0,5.0,88,0.00,,,0.00,VWS V14.01,2013-10-11 09:21:00,
2013-10-11 03:26:00,82.0,78.1,29.84,ENE,64,3.0,5.0,88,0.00,,,0.00,VWS V14.01,2013-10-11 09:26:00,
2013-10-11 03:30:00,82.0,78.4,29.84,NE,41,1.0,5.0,89,0.00,,,0.00,VWS V15.00,2013-10-11 09:30:00,
2013-10-11 03:31:00,82.0,78.4,29.84,NE,41,2.0,5.0,89,0.00,,,0.00,VWS V14.01,2013-10-11 09:31:00,
2013-10-11 03:36:00,82.0,78.4,29.84,NE,41,4.0,8.0,89,0.00,,,0.00,VWS V14.01,2013-10-11 09:36:00,
2013-10-11 03:41:00,81.9,78.3,29.84,ENE,70,1.0,8.0,89,0.00,,,0.00,VWS V14.01,2013-10-11 09:41:00,
2013-10-11 03:46:00,81.9,78.0,29.83,NE,35,1.0,8.0,88,0.00,,,0.00,VWS V14.01,2013-10-11 09:46:00,
2013-10-11 03:51:00,81.7,77.8,29.84,NE,44,3.0,8.0,88,0.00,,,0.00,VWS V14.01,2013-10-11 09:51:00,
2013-10-11 03:56:00,81.6,77.4,29.83,NE,34,2.0,8.0,87,0.00,,,0.00,VWS V14.01,2013-10-11 09:56:00,
2013-10-11 04:00:00,81.5,76.9,29.84,NE,56,0.0,8.0,86,0.00,,,0.00,VWS V15.00,2013-10-11 10:00:00,
2013-10-11 04:01:00,81.5,76.9,29.84,NNE,29,0.0,1.0,86,0.00,,,0.00,VWS V14.01,2013-10-11 10:01:00,
2013-10-11 04:06:00,81.3,76.4,29.84,NE,37,0.0,3.0,85,0.00,,,0.00,VWS V14.01,2013-10-11 10:06:00,
2013-10-11 04:11:00,81.2,76.3,29.84,NNE,27,4.0,4.0,85,0.00,,,0.00,VWS V14.01,2013-10-11 10:11:00,
2013-10-11 04:16:00,81.3,76.4,29.84,NNE,12,0.0,4.0,85,0.00,,,0.00,VWS V14.01,2013-10-11 10:16:00,
2013-10-11 04:21:00,81.3,76.4,29.84,NNE,24,2.0,4.0,85,0.00,,,0.00,VWS V14.01,2013-10-11 10:21:00,
2013-10-11 04:26:00,81.4,76.5,29.84,ENE,72,1.0,5.0,85,0.00,,,0.00,VWS V14.01,2013-10-11 10:26:00,
2013-10-11 04:30:00,81.5,76.6,29.84,NNE,26,3.0,6.0,85,0.00,,,0.00,VWS V15.00,2013-10-11 10:30:00,
2013-10-11 04:31:00,81.6,76.7,29.84,ENE,59,4.0,8.0,85,0.00,,,0.00,VWS V14.01,2013-10-11 10:31:00,
2013-10-11 04:36:00,81.9,76.6,29.84,ENE,62,0.0,8.0,84,0.00,,,0.00,VWS V14.01,2013-10-11 10:36:00,
2013-10-11 04:41:00,81.9,75.9,29.85,NE,53,3.0,8.0,82,0.00,,,0.00,VWS V14.01,2013-10-11 10:41:00,
2013-10-11 04:46:00,82.1,75.7,29.85,NE,56,5.0,8.0,81,0.00,,,0.00,VWS V14.01,2013-10-11 10:46:00,
2013-10-11 04:51:00,82.3,75.9,29.85,ENE,68,0.0,8.0,81,0.00,,,0.00,VWS V14.01,2013-10-11 10:51:00,
2013-10-11 04:56:00,82.3,75.9,29.85,ENE,62,4.0,10.0,81,0.00,,,0.00,VWS V14.01,2013-10-11 10:56:00,
2013-10-11 05:00:00,82.3,75.9,29.85,East,81,7.0,10.0,81,0.00,,,0.00,VWS V15.00,2013-10-11 11:00:00,
2013-10-11 05:01:00,82.3,75.9,29.85,NE,45,4.0,7.0,81,0.00,,,0.00,VWS V14.01,2013-10-11 11:01:00,
2013-10-11 05:06:00,82.3,76.3,29.85,NE,49,3.0,7.0,82,0.00,,,0.00,VWS V14.01,2013-10-11 11:06:00,
2013-10-11 05:11:00,82.2,76.2,29.85,NE,50,2.0,7.0,82,0.00,,,0.00,VWS V14.01,2013-10-11 11:11:00,
2013-10-11 05:16:00,82.1,76.1,29.85,ENE,72,2.0,7.0,82,0.00,,,0.00,VWS V14.01,2013-10-11 11:16:00,
2013-10-11 05:21:00,82.0,76.0,29.85,ENE,65,1.0,7.0,82,0.00,,,0.00,VWS V14.01,2013-10-11 11:21:00,
2013-10-11 05:26:00,82.0,76.0,29.85,NNE,26,0.0,7.0,82,0.00,,,0.00,VWS V14.01,2013-10-11 11:26:00,
2013-10-11 05:30:00,81.9,76.2,29.85,NE,38,1.0,7.0,83,0.00,,,0.00,VWS V15.00,2013-10-11 11:30:00,
2013-10-11 05:31:00,81.9,75.9,29.85,ENE,70,1.0,2.0,82,0.00,,,0.00,VWS V14.01,2013-10-11 11:31:00,
2013-10-11 05:36:00,81.8,76.1,29.85,ENE,61,1.0,5.0,83,0.00,,,0.00,VWS V14.01,2013-10-11 11:36:00,
2013-10-11 05:41:00,81.7,76.4,29.85,NE,56,0.0,5.0,84,0.00,,,0.00,VWS V14.01,2013-10-11 11:41:00,
2013-10-11 05:46:00,81.6,76.3,29.86,NNE,28,1.0,5.0,84,0.00,,,0.00,VWS V14.01,2013-10-11 11:46:00,
2013-10-11 05:51:00,81.5,76.2,29.85,NNE,25,0.0,5.0,84,0.00,,,0.00,VWS V14.01,2013-10-11 11:51:00,
2013-10-11 05:56:00,81.6,76.3,29.85,NNE,33,0.0,5.0,84,0.00,,,0.00,VWS V14.01,2013-10-11 11:56:00,
2013-10-11 06:00:00,81.9,76.6,29.86,ENE,63,0.0,5.0,84,0.00,,,0.00,VWS V15.00,2013-10-11 12:00:00,
2013-10-11 06:01:00,82.0,76.7,29.86,NNE,28,3.0,3.0,84,0.00,,,0.00,VWS V14.01,2013-10-11 12:01:00,
2013-10-11 06:06:00,82.3,76.6,29.86,NE,41,0.0,3.0,83,0.00,,,0.00,VWS V14.01,2013-10-11 12:06:00,
2013-10-11 06:11:00,82.8,77.1,29.86,NNE,23,0.0,3.0,83,0.00,,,0.00,VWS V14.01,2013-10-11 12:11:00,
2013-10-11 06:16:00,83.4,77.3,29.86,NNE,23,0.0,3.0,82,0.00,,,0.00,VWS V14.01,2013-10-11 12:16:00,
2013-10-11 06:21:00,83.9,77.4,29.86,NE,37,0.0,3.0,81,0.00,,,0.00,VWS V14.01,2013-10-11 12:21:00,
2013-10-11 06:26:00,84.3,77.5,29.87,ENE,61,0.0,3.0,80,0.00,,,0.00,VWS V14.01,2013-10-11 12:26:00,
2013-10-11 06:30:00,84.5,77.7,29.87,ENE,65,0.0,3.0,80,0.00,,,0.00,VWS V15.00,2013-10-11 12:30:00,
2013-10-11 06:31:00,84.6,77.8,29.87,ENE,65,0.0,0.0,80,0.00,,,0.00,VWS V14.01,2013-10-11 12:31:00,
2013-10-11 06:36:00,85.4,78.2,29.87,East,96,0.0,1.0,79,0.00,,,0.00,VWS V14.01,2013-10-11 12:36:00,
2013-10-11 06:41:00,85.6,77.6,29.86,ENE,70,2.0,3.0,77,0.00,,,0.00,VWS V14.01,2013-10-11 12:41:00,
2013-10-11 06:46:00,85.5,77.9,29.86,NNE,33,1.0,3.0,78,0.00,,,0.00,VWS V14.01,2013-10-11 12:46:00,
2013-10-11 06:51:00,85.5,77.9,29.86,ESE,111,0.0,3.0,78,0.00,,,0.00,VWS V14.01,2013-10-11 12:51:00,
2013-10-11 06:56:00,85.4,77.4,29.87,ENE,77,2.0,4.0,77,0.00,,,0.00,VWS V14.01,2013-10-11 12:56:00,
2013-10-11 07:00:00,85.2,77.6,29.87,ESE,115,1.0,5.0,78,0.00,,,0.00,VWS V15.00,2013-10-11 13:00:00,
2013-10-11 07:01:00,85.3,78.1,29.87,East,79,3.0,3.0,79,0.00,,,0.00,VWS V14.01,2013-10-11 13:01:00,
2013-10-11 07:07:00,85.3,77.3,29.87,East,86,3.0,4.0,77,0.00,,,0.00,VWS V14.01,2013-10-11 13:07:00,
2013-10-11 07:12:00,85.2,77.6,29.87,SE,139,0.0,5.0,78,0.00,,,0.00,VWS V14.01,2013-10-11 13:12:00,
2013-10-11 07:16:00,85.3,77.7,29.88,NE,37,3.0,5.0,78,0.00,,,0.00,VWS V14.01,2013-10-11 13:16:00,
2013-10-11 07:21:00,85.2,77.6,29.88,ENE,60,5.0,7.0,78,0.00,,,0.00,VWS V14.01,2013-10-11 13:21:00,
2013-10-11 07:26:00,85.2,77.6,29.88,ENE,63,2.0,7.0,78,0.00,,,0.00,VWS V14.01,2013-10-11 13:26:00,
2013-10-11 07:30:00,85.4,78.2,29.88,ENE,68,4.0,7.0,79,0.00,,,0.00,VWS V15.00,2013-10-11 13:30:00,
2013-10-11 07:31:00,85.4,77.8,29.89,East,84,5.0,6.0,78,0.00,,,0.00,VWS V14.01,2013-10-11 13:31:00,
2013-10-11 07:36:00,85.2,77.6,29.89,ENE,76,6.0,9.0,78,0.00,,,0.00,VWS V14.01,2013-10-11 13:36:00,
2013-10-11 07:41:00,85.5,78.2,29.89,ENE,68,5.0,9.0,79,0.00,,,0.00,VWS V14.01,2013-10-11 13:41:00,
2013-10-11 07:46:00,85.2,77.6,29.89,ENE,66,7.0,10.0,78,0.00,,,0.00,VWS V14.01,2013-10-11 13:46:00,
2013-10-11 07:51:00,85.3,78.1,29.89,ESE,114,3.0,10.0,79,0.00,,,0.00,VWS V14.01,2013-10-11 13:51:00,
2013-10-11 07:56:00,85.8,78.2,29.90,ENE,68,5.0,10.0,78,0.00,,,0.00,VWS V14.01,2013-10-11 13:56:00,
2013-10-11 08:00:00,85.7,78.1,29.90,ENE,72,7.0,10.0,78,0.00,,,0.00,VWS V15.00,2013-10-11 14:00:00,
2013-10-11 08:01:00,85.6,78.0,29.90,ENE,72,5.0,8.0,78,0.00,,,0.00,VWS V14.01,2013-10-11 14:01:00,
2013-10-11 08:06:00,85.4,78.2,29.90,ENE,63,5.0,9.0,79,0.00,,,0.00,VWS V14.01,2013-10-11 14:06:00,
2013-10-11 08:11:00,85.4,78.2,29.90,ENE,59,4.0,9.0,79,0.00,,,0.00,VWS V14.01,2013-10-11 14:11:00,
2013-10-11 08:16:00,85.4,77.8,29.90,ESE,114,5.0,9.0,78,0.00,,,0.00,VWS V14.01,2013-10-11 14:16:00,
2013-10-11 08:21:00,85.5,78.2,29.90,ENE,70,7.0,10.0,79,0.00,,,0.00,VWS V14.01,2013-10-11 14:21:00,
2013-10-11 08:26:00,85.6,78.0,29.90,NE,38,4.0,12.0,78,0.00,,,0.00,VWS V14.01,2013-10-11 14:26:00,
2013-10-11 08:30:00,85.8,77.8,29.90,SE,127,6.0,12.0,77,0.00,,,0.00,VWS V15.00,2013-10-11 14:30:00,
2013-10-11 08:31:00,85.9,78.2,29.90,NNE,29,2.0,9.0,78,0.00,,,0.00,VWS V14.01,2013-10-11 14:31:00,
2013-10-11 08:36:00,86.0,77.9,29.90,ENE,59,6.0,10.0,77,0.00,,,0.00,VWS V14.01,2013-10-11 14:36:00,
2013-10-11 08:41:00,85.8,78.2,29.90,ENE,75,4.0,10.0,78,0.00,,,0.00,VWS V14.01,2013-10-11 14:41:00,
2013-10-11 08:46:00,86.1,78.4,29.90,East,84,7.0,11.0,78,0.00,,,0.00,VWS V14.01,2013-10-11 14:46:00,
2013-10-11 08:51:00,85.9,77.9,29.90,NE,40,6.0,12.0,77,0.00,,,0.00,VWS V14.01,2013-10-11 14:51:00,
2013-10-11 08:56:00,86.0,78.7,29.90,ENE,59,7.0,12.0,79,0.00,,,0.00,VWS V14.01,2013-10-11 14:56:00,
2013-10-11 09:00:00,86.0,78.3,29.90,East,101,5.0,12.0,78,0.00,,,0.00,VWS V15.00,2013-10-11 15:00:00,
2013-10-11 09:01:00,86.1,78.1,29.90,East,84,3.0,8.0,77,0.00,,,0.00,VWS V14.01,2013-10-11 15:01:00,
2013-10-11 09:06:00,86.0,78.3,29.90,ESE,114,6.0,11.0,78,0.00,,,0.00,VWS V14.01,2013-10-11 15:06:00,
2013-10-11 09:11:00,86.1,78.4,29.90,ENE,65,7.0,11.0,78,0.00,,,0.00,VWS V14.01,2013-10-11 15:11:00,
2013-10-11 09:16:00,86.2,78.5,29.90,ENE,73,4.0,11.0,78,0.00,,,0.00,VWS V14.01,2013-10-11 15:16:00,
2013-10-11 09:21:00,86.1,78.4,29.90,East,82,3.0,11.0,78,0.00,,,0.00,VWS V14.01,2013-10-11 15:21:00,
2013-10-11 09:26:00,86.2,78.9,29.90,East,87,7.0,11.0,79,0.00,,,0.00,VWS V14.01,2013-10-11 15:26:00,
2013-10-11 09:30:00,86.0,77.9,29.90,ENE,77,8.0,11.0,77,0.00,,,0.00,VWS V15.00,2013-10-11 15:30:00,
2013-10-11 09:31:00,86.0,78.3,29.90,ENE,57,5.0,9.0,78,0.00,,,0.00,VWS V14.01,2013-10-11 15:31:00,
2013-10-11 09:36:00,86.2,78.5,29.90,ENE,70,6.0,12.0,78,0.00,,,0.00,VWS V14.01,2013-10-11 15:36:00,
2013-10-11 09:41:00,86.0,78.3,29.90,East,83,8.0,12.0,78,0.00,,,0.00,VWS V14.01,2013-10-11 15:41:00,
2013-10-11 09:46:00,86.1,78.8,29.90,NE,34,3.0,12.0,79,0.00,,,0.00,VWS V14.01,2013-10-11 15:46:00,
2013-10-11 09:51:00,86.6,78.5,29.90,NE,51,2.0,12.0,77,0.00,,,0.00,VWS V14.01,2013-10-11 15:51:00,
2013-10-11 09:56:00,86.4,78.7,29.90,NNE,32,4.0,12.0,78,0.00,,,0.00,VWS V14.01,2013-10-11 15:56:00,
2013-10-11 10:00:00,86.6,78.1,29.91,NNE,30,3.0,12.0,76,0.00,,,0.00,VWS V15.00,2013-10-11 16:00:00,
2013-10-11 10:01:00,86.6,78.5,29.91,ENE,61,8.0,10.0,77,0.00,,,0.00,VWS V14.01,2013-10-11 16:01:00,
2013-10-11 10:06:00,86.6,78.5,29.91,NE,49,4.0,12.0,77,0.00,,,0.00,VWS V14.01,2013-10-11 16:06:00,
2013-10-11 10:11:00,86.8,78.7,29.91,ESE,107,1.0,12.0,77,0.00,,,0.00,VWS V14.01,2013-10-11 16:11:00,
2013-10-11 10:16:00,86.8,77.9,29.90,ENE,65,6.0,12.0,75,0.00,,,0.00,VWS V14.01,2013-10-11 16:16:00,
2013-10-11 10:21:00,86.5,77.6,29.90,ENE,68,5.0,12.0,75,0.00,,,0.00,VWS V14.01,2013-10-11 16:21:00,
2013-10-11 10:26:00,86.3,77.4,29.90,NNE,16,6.0,12.0,75,0.00,,,0.00,VWS V14.01,2013-10-11 16:26:00,
2013-10-11 10:30:00,86.3,77.8,29.90,ENE,64,9.0,12.0,76,0.00,,,0.00,VWS V15.00,2013-10-11 16:30:00,
2013-10-11 10:31:00,86.3,77.8,29.90,ENE,72,9.0,11.0,76,0.00,,,0.00,VWS V14.01,2013-10-11 16:31:00,
2013-10-11 10:36:00,86.4,78.3,29.90,ENE,70,6.0,11.0,77,0.00,,,0.00,VWS V14.01,2013-10-11 16:36:00,
2013-10-11 10:41:00,86.5,78.0,29.90,ENE,77,8.0,11.0,76,0.00,,,0.00,VWS V14.01,2013-10-11 16:41:00,
2013-10-11 10:46:00,87.0,78.1,29.89,ENE,70,8.0,11.0,75,0.00,,,0.00,VWS V14.01,2013-10-11 16:46:00,
2013-10-11 10:51:00,87.0,78.1,29.89,ENE,61,6.0,11.0,75,0.00,,,0.00,VWS V14.01,2013-10-11 16:51:00,
2013-10-11 10:56:00,86.8,77.9,29.89,ESE,107,5.0,11.0,75,0.00,,,0.00,VWS V14.01,2013-10-11 16:56:00,
2013-10-11 11:00:00,87.1,78.2,29.89,East,99,0.0,11.0,75,0.00,,,0.00,VWS V15.00,2013-10-11 17:00:00,
2013-10-11 11:01:00,87.2,78.7,29.89,East,82,4.0,6.0,76,0.00,,,0.00,VWS V14.01,2013-10-11 17:01:00,
2013-10-11 11:06:00,87.1,77.8,29.89,East,82,6.0,10.0,74,0.00,,,0.00,VWS V14.01,2013-10-11 17:06:00,
2013-10-11 11:11:00,86.7,77.4,29.89,NE,53,6.0,12.0,74,0.00,,,0.00,VWS V14.01,2013-10-11 17:11:00,
2013-10-11 11:16:00,86.4,77.5,29.88,SE,125,7.0,14.0,75,0.00,,,0.00,VWS V14.01,2013-10-11 17:16:00,
2013-10-11 11:21:00,87.2,78.3,29.88,East,79,5.0,14.0,75,0.00,,,0.00,VWS V14.01,2013-10-11 17:21:00,
2013-10-11 11:26:00,87.5,77.4,29.88,ESE,114,3.0,14.0,72,0.00,,,0.00,VWS V14.01,2013-10-11 17:26:00,
2013-10-11 11:30:00,87.2,77.5,29.88,NE,49,10.0,14.0,73,0.00,,,0.00,VWS V15.00,2013-10-11 17:30:00,
2013-10-11 11:31:00,86.9,77.2,29.88,ENE,71,6.0,10.0,73,0.00,,,0.00,VWS V14.01,2013-10-11 17:31:00,
2013-10-11 11:36:00,87.2,78.3,29.88,ENE,71,5.0,10.0,75,0.00,,,0.00,VWS V14.01,2013-10-11 17:36:00,
2013-10-11 11:41:00,87.5,77.4,29.88,NE,51,3.0,14.0,72,0.00,,,0.00,VWS V14.01,2013-10-11 17:41:00,
2013-10-11 11:46:00,87.3,78.0,29.88,NE,56,6.0,14.0,74,0.00,,,0.00,VWS V14.01,2013-10-11 17:46:00,
2013-10-11 11:51:00,87.5,78.2,29.88,NNE,30,6.0,14.0,74,0.00,,,0.00,VWS V14.01,2013-10-11 17:51:00,
2013-10-11 11:56:00,87.7,78.4,29.87,NE,52,10.0,14.0,74,0.00,,,0.00,VWS V14.01,2013-10-11 17:56:00,
2013-10-11 12:00:00,87.0,78.1,29.87,NNE,29,3.0,14.0,75,0.00,,,0.00,VWS V15.00,2013-10-11 18:00:00,
2013-10-11 12:01:00,87.0,78.5,29.87,North,8,5.0,6.0,76,0.00,,,0.00,VWS V14.01,2013-10-11 18:01:00,
2013-10-11 12:06:00,87.4,78.5,29.87,NE,44,5.0,11.0,75,0.00,,,0.00,VWS V14.01,2013-10-11 18:06:00,
2013-10-11 12:11:00,87.4,78.9,29.86,NNW,328,2.0,11.0,76,0.00,,,0.00,VWS V14.01,2013-10-11 18:11:00,
2013-10-11 12:16:00,88.0,78.7,29.86,NNE,30,8.0,11.0,74,0.00,,,0.00,VWS V14.01,2013-10-11 18:16:00,
2013-10-11 12:21:00,88.0,78.7,29.86,ENE,76,3.0,11.0,74,0.00,,,0.00,VWS V14.01,2013-10-11 18:21:00,
2013-10-11 12:26:00,88.2,78.9,29.86,NNE,33,3.0,11.0,74,0.00,,,0.00,VWS V14.01,2013-10-11 18:26:00,
2013-10-11 12:30:00,89.0,78.8,29.86,ENE,57,7.0,11.0,72,0.00,,,0.00,VWS V15.00,2013-10-11 18:30:00,
2013-10-11 12:31:00,89.0,77.9,29.86,North,8,2.0,8.0,70,0.00,,,0.00,VWS V14.01,2013-10-11 18:31:00,
2013-10-11 12:36:00,88.7,78.5,29.85,ENE,67,1.0,11.0,72,0.00,,,0.00,VWS V14.01,2013-10-11 18:36:00,
2013-10-11 12:41:00,89.1,78.0,29.85,NNW,340,1.0,11.0,70,0.00,,,0.00,VWS V14.01,2013-10-11 18:41:00,
2013-10-11 12:46:00,89.3,77.4,29.85,ENE,67,8.0,11.0,68,0.00,,,0.00,VWS V14.01,2013-10-11 18:46:00,
2013-10-11 12:51:00,89.1,78.0,29.85,ENE,68,1.0,12.0,70,0.00,,,0.00,VWS V14.01,2013-10-11 18:51:00,
2013-10-11 12:56:00,89.4,78.3,29.85,NE,49,2.0,12.0,70,0.00,,,0.00,VWS V14.01,2013-10-11 18:56:00,
2013-10-11 13:00:00,89.3,78.2,29.84,East,79,6.0,12.0,70,0.00,,,0.00,VWS V15.00,2013-10-11 19:00:00,
2013-10-11 13:01:00,89.2,77.7,29.84,East,80,7.0,12.0,69,0.00,,,0.00,VWS V14.01,2013-10-11 19:01:00,
2013-10-11 13:06:00,89.3,78.2,29.85,NE,41,4.0,12.0,70,0.00,,,0.00,VWS V14.01,2013-10-11 19:06:00,
2013-10-11 13:11:00,89.7,79.1,29.84,NNW,345,7.0,12.0,71,0.00,,,0.00,VWS V14.01,2013-10-11 19:11:00,
2013-10-11 13:16:00,89.4,78.8,29.84,NNE,32,6.0,12.0,71,0.00,,,0.00,VWS V14.01,2013-10-11 19:16:00,
2013-10-11 13:21:00,89.7,79.1,29.84,East,80,2.0,12.0,71,0.00,,,0.00,VWS V14.01,2013-10-11 19:21:00,
2013-10-11 13:26:00,89.1,78.9,29.84,NNE,17,1.0,12.0,72,0.00,,,0.00,VWS V14.01,2013-10-11 19:26:00,
2013-10-11 13:30:00,89.1,78.9,29.83,NNE,22,4.0,12.0,72,0.00,,,0.00,VWS V15.00,2013-10-11 19:30:00,
2013-10-11 13:31:00,89.0,79.2,29.83,NE,43,2.0,6.0,73,0.00,,,0.00,VWS V14.01,2013-10-11 19:31:00,
2013-10-11 13:36:00,88.5,79.6,29.83,ENE,68,1.0,9.0,75,0.00,,,0.00,VWS V14.01,2013-10-11 19:36:00,
2013-10-11 13:41:00,88.6,79.2,29.83,NW,312,2.0,9.0,74,0.00,,,0.00,VWS V14.01,2013-10-11 19:41:00,
2013-10-11 13:46:00,88.4,78.7,29.83,North,3,4.0,9.0,73,0.00,,,0.00,VWS V14.01,2013-10-11 19:46:00,
2013-10-11 13:51:00,88.0,78.7,29.82,ENE,60,4.0,9.0,74,0.00,,,0.00,VWS V14.01,2013-10-11 19:51:00,
2013-10-11 13:56:00,87.6,78.3,29.82,NNE,20,7.0,9.0,74,0.00,,,0.00,VWS V14.01,2013-10-11 19:56:00,
2013-10-11 14:00:00,87.4,78.5,29.82,NNW,348,2.0,9.0,75,0.00,,,0.00,VWS V15.00,2013-10-11 20:00:00,
2013-10-11 14:01:00,87.4,78.1,29.81,North,11,2.0,6.0,74,0.00,,,0.00,VWS V14.01,2013-10-11 20:01:00,
2013-10-11 14:06:00,86.9,78.4,29.81,North,360,1.0,8.0,76,0.00,,,0.00,VWS V14.01,2013-10-11 20:06:00,
2013-10-11 14:11:00,86.9,78.8,29.81,NW,316,3.0,8.0,77,0.00,,,0.00,VWS V14.01,2013-10-11 20:11:00,
2013-10-11 14:16:00,87.5,79.0,29.81,NW,319,4.0,8.0,76,0.00,,,0.00,VWS V14.01,2013-10-11 20:16:00,
2013-10-11 14:21:00,88.0,78.7,29.82,NW,319,0.0,9.0,74,0.00,,,0.00,VWS V14.01,2013-10-11 20:21:00,
2013-10-11 14:26:00,88.6,78.8,29.81,NNE,18,2.0,9.0,73,0.00,,,0.00,VWS V14.01,2013-10-11 20:26:00,
2013-10-11 14:30:00,88.7,79.3,29.81,NNW,327,7.0,9.0,74,0.00,,,0.00,VWS V15.00,2013-10-11 20:30:00,
2013-10-11 14:31:00,88.6,78.8,29.81,NNW,345,2.0,7.0,73,0.00,,,0.00,VWS V14.01,2013-10-11 20:31:00,
2013-10-11 14:36:00,88.4,79.1,29.81,NE,49,4.0,12.0,74,0.00,,,0.00,VWS V14.01,2013-10-11 20:36:00,
2013-10-11 14:41:00,88.2,79.3,29.81,North,9,1.0,12.0,75,0.00,,,0.00,VWS V14.01,2013-10-11 20:41:00,
2013-10-11 14:46:00,88.3,79.0,29.81,ENE,63,5.0,12.0,74,0.00,,,0.00,VWS V14.01,2013-10-11 20:46:00,
2013-10-11 14:51:00,88.0,79.1,29.80,NW,311,3.0,12.0,75,0.00,,,0.00,VWS V14.01,2013-10-11 20:51:00,
2013-10-11 14:56:00,87.7,78.8,29.80,NNE,27,8.0,12.0,75,0.00,,,0.00,VWS V14.01,2013-10-11 20:56:00,
2013-10-11 15:00:00,88.1,79.6,29.80,NW,322,2.0,12.0,76,0.00,,,0.00,VWS V15.00,2013-10-11 21:00:00,
2013-10-11 15:01:00,88.2,79.3,29.80,NE,49,6.0,6.0,75,0.00,,,0.00,VWS V14.01,2013-10-11 21:01:00,
2013-10-11 15:06:00,87.6,78.7,29.80,NNW,341,5.0,8.0,75,0.00,,,0.00,VWS V14.01,2013-10-11 21:06:00,
2013-10-11 15:11:00,87.2,78.7,29.80,NNW,346,4.0,10.0,76,0.00,,,0.00,VWS V14.01,2013-10-11 21:11:00,
2013-10-11 15:16:00,86.9,78.8,29.80,North,8,6.0,10.0,77,0.00,,,0.00,VWS V14.01,2013-10-11 21:16:00,
2013-10-11 15:21:00,87.0,79.3,29.80,NNE,15,1.0,10.0,78,0.00,,,0.00,VWS V14.01,2013-10-11 21:21:00,
2013-10-11 15:26:00,87.4,79.3,29.80,East,80,3.0,10.0,77,0.00,,,0.00,VWS V14.01,2013-10-11 21:26:00,
2013-10-11 15:30:00,87.3,79.2,29.80,NNE,22,4.0,10.0,77,0.00,,,0.00,VWS V15.00,2013-10-11 21:30:00,
2013-10-11 15:31:00,87.4,79.3,29.80,WNW,295,0.0,5.0,77,0.00,,,0.00,VWS V14.01,2013-10-11 21:31:00,
2013-10-11 15:36:00,87.5,79.0,29.80,NNE,20,3.0,8.0,76,0.00,,,0.00,VWS V14.01,2013-10-11 21:36:00,
2013-10-11 15:41:00,87.1,79.0,29.80,NW,316,2.0,8.0,77,0.00,,,0.00,VWS V14.01,2013-10-11 21:41:00,
2013-10-11 15:46:00,87.1,79.4,29.80,North,355,4.0,8.0,78,0.00,,,0.00,VWS V14.01,2013-10-11 21:46:00,
2013-10-11 15:51:00,87.1,79.4,29.80,NNW,337,2.0,8.0,78,0.00,,,0.00,VWS V14.01,2013-10-11 21:51:00,
2013-10-11 15:56:00,86.7,79.4,29.80,ENE,74,2.0,8.0,79,0.00,,,0.00,VWS V14.01,2013-10-11 21:56:00,
2013-10-11 16:00:00,86.4,79.1,29.80,ENE,64,3.0,8.0,79,0.00,,,0.00,VWS V15.00,2013-10-11 22:00:00,
2013-10-11 16:01:00,86.4,79.5,29.80,NNE,33,1.0,3.0,80,0.00,,,0.00,VWS V14.01,2013-10-11 22:01:00,
2013-10-11 16:06:00,86.2,79.3,29.81,NNE,22,2.0,8.0,80,0.00,,,0.00,VWS V14.01,2013-10-11 22:06:00,
2013-10-11 16:11:00,86.1,79.2,29.81,NNW,327,2.0,9.0,80,0.00,,,0.00,VWS V14.01,2013-10-11 22:11:00,
2013-10-11 16:16:00,86.3,79.4,29.81,ENE,58,2.0,9.0,80,0.00,,,0.00,VWS V14.01,2013-10-11 22:16:00,
2013-10-11 16:21:00,86.1,79.2,29.81,East,79,1.0,9.0,80,0.00,,,0.00,VWS V14.01,2013-10-11 22:21:00,
2013-10-11 16:26:00,85.7,79.2,29.81,NE,47,2.0,9.0,81,0.00,,,0.00,VWS V14.01,2013-10-11 22:26:00,
2013-10-11 16:30:00,85.4,78.9,29.81,NNE,32,1.0,9.0,81,0.00,,,0.00,VWS V15.00,2013-10-11 22:30:00,
2013-10-11 16:31:00,85.4,79.3,29.81,NNW,329,3.0,6.0,82,0.00,,,0.00,VWS V14.01,2013-10-11 22:31:00,
2013-10-11 16:36:00,85.2,79.1,29.81,NNW,332,2.0,6.0,82,0.00,,,0.00,VWS V14.01,2013-10-11 22:36:00,
2013-10-11 16:41:00,85.2,79.1,29.82,North,11,4.0,6.0,82,0.00,,,0.00,VWS V14.01,2013-10-11 22:41:00,
2013-10-11 16:46:00,85.0,79.3,29.82,NE,44,1.0,6.0,83,0.00,,,0.00,VWS V14.01,2013-10-11 22:46:00,
2013-10-11 16:51:00,84.9,79.2,29.82,NE,41,0.0,6.0,83,0.00,,,0.00,VWS V14.01,2013-10-11 22:51:00,
2013-10-11 16:56:00,84.7,79.0,29.83,NE,41,1.0,6.0,83,0.00,,,0.00,VWS V14.01,2013-10-11 22:56:00,
2013-10-11 17:00:00,84.7,79.0,29.83,NNE,19,2.0,6.0,83,0.00,,,0.00,VWS V15.00,2013-10-11 23:00:00,
2013-10-11 17:01:00,84.7,79.0,29.83,North,356,0.0,3.0,83,0.00,,,0.00,VWS V14.01,2013-10-11 23:01:00,
2013-10-11 17:06:00,84.8,79.1,29.83,North,350,3.0,5.0,83,0.00,,,0.00,VWS V14.01,2013-10-11 23:06:00,
2013-10-11 17:11:00,84.8,78.7,29.83,NE,34,2.0,6.0,82,0.00,,,0.00,VWS V14.01,2013-10-11 23:11:00,
2013-10-11 17:16:00,84.8,78.7,29.83,North,9,2.0,7.0,82,0.00,,,0.00,VWS V14.01,2013-10-11 23:16:00,
2013-10-11 17:21:00,84.7,78.6,29.83,NE,39,2.0,7.0,82,0.00,,,0.00,VWS V14.01,2013-10-11 23:21:00,
2013-10-11 17:26:00,84.6,78.9,29.83,NNE,13,4.0,7.0,83,0.00,,,0.00,VWS V14.01,2013-10-11 23:26:00,
2013-10-11 17:30:00,84.5,78.8,29.83,NNW,334,1.0,7.0,83,0.00,,,0.00,VWS V15.00,2013-10-11 23:30:00,
2013-10-11 17:31:00,84.5,78.8,29.83,ENE,62,2.0,2.0,83,0.00,,,0.00,VWS V14.01,2013-10-11 23:31:00,
2013-10-11 17:36:00,84.3,78.6,29.83,NE,46,2.0,6.0,83,0.00,,,0.00,VWS V14.01,2013-10-11 23:36:00,
2013-10-11 17:41:00,84.2,78.5,29.83,North,6,4.0,6.0,83,0.00,,,0.00,VWS V14.01,2013-10-11 23:41:00,
2013-10-11 17:46:00,84.1,78.8,29.83,NE,45,5.0,6.0,84,0.00,,,0.00,VWS V14.01,2013-10-11 23:46:00,
2013-10-11 17:51:00,84.0,78.3,29.83,NE,52,4.0,6.0,83,0.00,,,0.00,VWS V14.01,2013-10-11 23:51:00,
2013-10-11 17:56:00,84.0,78.3,29.83,NNE,15,2.0,6.0,83,0.00,,,0.00,VWS V14.01,2013-10-11 23:56:00,
2013-10-11 18:00:00,84.0,78.3,29.84,NNW,345,1.0,7.0,83,0.00,,,0.00,VWS V15.00,2013-10-12 00:00:00,
2013-10-11 18:01:00,84.0,78.3,29.84,East,79,0.0,2.0,83,0.00,,,0.00,VWS V14.01,2013-10-12 00:01:00,
2013-10-11 18:06:00,84.0,78.3,29.84,ENE,70,3.0,7.0,83,0.00,,,0.00,VWS V14.01,2013-10-12 00:06:00,
2013-10-11 18:11:00,84.0,78.3,29.84,NE,52,3.0,7.0,83,0.00,,,0.00,VWS V14.01,2013-10-12 00:11:00,
2013-10-11 18:16:00,84.0,78.3,29.85,NE,53,1.0,7.0,83,0.00,,,0.00,VWS V14.01,2013-10-12 00:16:00,
2013-10-11 18:21:00,84.0,77.9,29.85,NNE,29,7.0,8.0,82,0.00,,,0.00,VWS V14.01,2013-10-12 00:21:00,
2013-10-11 18:26:00,84.1,77.6,29.85,North,360,3.0,8.0,81,0.00,,,0.00,VWS V14.01,2013-10-12 00:26:00,
2013-10-11 18:30:00,84.1,77.6,29.85,North,10,1.0,8.0,81,0.00,,,0.00,VWS V15.00,2013-10-12 00:30:00,
2013-10-11 18:31:00,84.1,77.6,29.85,East,98,1.0,5.0,81,0.00,,,0.00,VWS V14.01,2013-10-12 00:31:00,
2013-10-11 18:36:00,84.0,77.5,29.85,NE,39,1.0,5.0,81,0.00,,,0.00,VWS V14.01,2013-10-12 00:36:00,
2013-10-11 18:41:00,83.9,77.4,29.86,NE,49,4.0,5.0,81,0.00,,,0.00,VWS V14.01,2013-10-12 00:41:00,
2013-10-11 18:46:00,84.0,77.5,29.86,NE,43,7.0,8.0,81,0.00,,,0.00,VWS V14.01,2013-10-12 00:46:00,
2013-10-11 18:51:00,84.2,77.4,29.85,North,10,2.0,8.0,80,0.00,,,0.00,VWS V14.01,2013-10-12 00:51:00,
2013-10-11 18:56:00,84.2,77.0,29.86,NNE,13,3.0,8.0,79,0.00,,,0.00,VWS V14.01,2013-10-12 00:56:00,
2013-10-11 19:00:00,84.3,76.7,29.86,ENE,70,5.0,8.0,78,0.00,,,0.00,VWS V15.00,2013-10-12 01:00:00,
2013-10-11 19:01:00,84.3,76.7,29.86,NE,53,2.0,7.0,78,0.00,,,0.00,VWS V14.01,2013-10-12 01:01:00,
2013-10-11 19:06:00,84.3,76.7,29.86,NE,56,3.0,8.0,78,0.00,,,0.00,VWS V14.01,2013-10-12 01:06:00,
2013-10-11 19:11:00,84.3,77.1,29.86,ENE,63,3.0,8.0,79,0.00,,,0.00,VWS V14.01,2013-10-12 01:11:00,
2013-10-11 19:16:00,84.3,77.1,29.87,NNE,31,3.0,8.0,79,0.00,,,0.00,VWS V14.01,2013-10-12 01:16:00,
2013-10-11 19:21:00,84.3,77.5,29.87,NNW,330,3.0,8.0,80,0.00,,,0.00,VWS V14.01,2013-10-12 01:21:00,
2013-10-11 19:26:00,84.2,77.4,29.87,NNE,18,4.0,8.0,80,0.00,,,0.00,VWS V14.01,2013-10-12 01:26:00,
2013-10-11 19:30:00,84.2,77.4,29.87,NE,56,7.0,9.0,80,0.00,,,0.00,VWS V15.00,2013-10-12 01:30:00,
2013-10-11 19:31:00,84.2,77.4,29.87,ENE,68,2.0,7.0,80,0.00,,,0.00,VWS V14.01,2013-10-12 01:31:00,
2013-10-11 19:36:00,84.1,77.3,29.88,NE,53,3.0,8.0,80,0.00,,,0.00,VWS V14.01,2013-10-12 01:36:00,
2013-10-11 19:41:00,84.1,77.6,29.88,NE,49,2.0,8.0,81,0.00,,,0.00,VWS V14.01,2013-10-12 01:41:00,
2013-10-11 19:46:00,84.1,77.6,29.88,NNW,348,4.0,9.0,81,0.00,,,0.00,VWS V14.01,2013-10-12 01:46:00,
2013-10-11 19:51:00,84.1,77.6,29.88,NE,37,5.0,9.0,81,0.00,,,0.00,VWS V14.01,2013-10-12 01:51:00,
2013-10-11 19:56:00,84.0,77.9,29.88,NNE,19,3.0,9.0,82,0.00,,,0.00,VWS V14.01,2013-10-12 01:56:00,
2013-10-11 20:00:00,84.0,77.9,29.88,NE,56,2.0,9.0,82,0.00,,,0.00,VWS V15.00,2013-10-12 02:00:00,
2013-10-11 20:01:00,84.0,77.9,29.88,NE,50,4.0,4.0,82,0.00,,,0.00,VWS V14.01,2013-10-12 02:01:00,
2013-10-11 20:06:00,83.9,78.2,29.88,ENE,69,5.0,8.0,83,0.00,,,0.00,VWS V14.01,2013-10-12 02:06:00,
2013-10-11 20:11:00,84.0,78.3,29.89,NNE,21,7.0,8.0,83,0.00,,,0.00,VWS V14.01,2013-10-12 02:11:00,
2013-10-11 20:16:00,84.0,78.3,29.89,NE,34,4.0,10.0,83,0.00,,,0.00,VWS V14.01,2013-10-12 02:16:00,
2013-10-11 20:21:00,84.1,78.4,29.89,ENE,60,3.0,10.0,83,0.00,,,0.00,VWS V14.01,2013-10-12 02:21:00,
2013-10-11 20:26:00,84.1,78.4,29.89,North,6,5.0,10.0,83,0.00,,,0.00,VWS V14.01,2013-10-12 02:26:00,
2013-10-11 20:30:00,84.1,78.4,29.89,ENE,59,11.0,11.0,83,0.00,,,0.00,VWS V15.00,2013-10-12 02:30:00,
2013-10-11 20:31:00,84.1,78.4,29.89,ENE,58,5.0,11.0,83,0.00,,,0.00,VWS V14.01,2013-10-12 02:31:00,
2013-10-11 20:36:00,84.1,78.4,29.89,NE,46,3.0,13.0,83,0.00,,,0.00,VWS V14.01,2013-10-12 02:36:00,
2013-10-11 20:41:00,84.2,78.8,29.89,ENE,65,1.0,13.0,84,0.00,,,0.00,VWS V14.01,2013-10-12 02:41:00,
2013-10-11 20:46:00,84.2,78.8,29.89,ENE,68,2.0,13.0,84,0.00,,,0.00,VWS V14.01,2013-10-12 02:46:00,
2013-10-11 20:51:00,84.2,78.5,29.89,ENE,76,6.0,13.0,83,0.00,,,0.00,VWS V14.01,2013-10-12 02:51:00,
2013-10-11 20:56:00,84.2,78.5,29.89,NE,39,3.0,13.0,83,0.00,,,0.00,VWS V14.01,2013-10-12 02:56:00,
2013-10-11 21:00:00,84.2,78.5,29.89,NE,50,7.0,13.0,83,0.00,,,0.00,VWS V15.00,2013-10-12 03:00:00,
2013-10-11 21:01:00,84.2,78.5,29.89,NE,41,7.0,7.0,83,0.00,,,0.00,VWS V14.01,2013-10-12 03:01:00,
2013-10-11 21:06:00,84.2,78.1,29.89,ENE,69,3.0,8.0,82,0.00,,,0.00,VWS V14.01,2013-10-12 03:06:00,
2013-10-11 21:11:00,84.3,77.8,29.89,East,97,3.0,9.0,81,0.00,,,0.00,VWS V14.01,2013-10-12 03:11:00,
2013-10-11 21:16:00,84.4,78.3,29.89,NE,56,3.0,10.0,82,0.00,,,0.00,VWS V14.01,2013-10-12 03:16:00,
2013-10-11 21:21:00,84.4,78.3,29.89,ENE,58,2.0,10.0,82,0.00,,,0.00,VWS V14.01,2013-10-12 03:21:00,
2013-10-11 21:26:00,84.3,77.8,29.89,NE,44,5.0,10.0,81,0.00,,,0.00,VWS V14.01,2013-10-12 03:26:00,
2013-10-11 21:30:00,84.3,77.5,29.89,East,83,8.0,10.0,80,0.00,,,0.00,VWS V15.00,2013-10-12 03:30:00,
2013-10-11 21:31:00,84.3,77.5,29.89,East,83,6.0,13.0,80,0.00,,,0.00,VWS V14.01,2013-10-12 03:31:00,
2013-10-11 21:36:00,84.4,77.6,29.90,ENE,58,10.0,13.0,80,0.00,,,0.00,VWS V14.01,2013-10-12 03:36:00,
2013-10-11 21:41:00,84.5,78.0,29.90,NE,44,5.0,13.0,81,0.00,,,0.00,VWS V14.01,2013-10-12 03:41:00,
2013-10-11 21:46:00,84.4,77.9,29.89,ENE,62,5.0,13.0,81,0.00,,,0.00,VWS V14.01,2013-10-12 03:46:00,
2013-10-11 21:51:00,84.4,77.9,29.89,ENE,58,7.0,13.0,81,0.00,,,0.00,VWS V14.01,2013-10-12 03:51:00,
2013-10-11 21:56:00,84.3,77.8,29.89,ENE,63,8.0,13.0,81,0.00,,,0.00,VWS V14.01,2013-10-12 03:56:00,
2013-10-11 22:00:00,84.4,77.9,29.89,ENE,58,5.0,15.0,81,0.00,,,0.00,VWS V15.00,2013-10-12 04:00:00,
2013-10-11 22:01:00,84.4,77.9,29.89,NE,41,3.0,4.0,81,0.00,,,0.00,VWS V14.01,2013-10-12 04:01:00,
2013-10-11 22:06:00,84.4,77.9,29.89,East,84,9.0,13.0,81,0.00,,,0.00,VWS V14.01,2013-10-12 04:06:00,
2013-10-11 22:11:00,84.4,78.3,29.89,ENE,76,7.0,15.0,82,0.00,,,0.00,VWS V14.01,2013-10-12 04:11:00,
2013-10-11 22:16:00,84.4,78.3,29.89,ENE,67,4.0,15.0,82,0.00,,,0.00,VWS V14.01,2013-10-12 04:16:00,
2013-10-11 22:21:00,84.3,78.2,29.89,NE,38,5.0,15.0,82,0.00,,,0.00,VWS V14.01,2013-10-12 04:21:00,
2013-10-11 22:26:00,84.3,78.2,29.89,NE,45,6.0,15.0,82,0.00,,,0.00,VWS V14.01,2013-10-12 04:26:00,
2013-10-11 22:30:00,84.3,78.2,29.89,ENE,63,6.0,15.0,82,0.00,,,0.00,VWS V15.00,2013-10-12 04:30:00,
2013-10-11 22:31:00,84.3,78.2,29.89,ENE,73,6.0,9.0,82,0.00,,,0.00,VWS V14.01,2013-10-12 04:31:00,
2013-10-11 22:36:00,83.9,77.8,29.89,ENE,69,9.0,21.0,82,0.00,,,0.00,VWS V14.01,2013-10-12 04:36:00,
2013-10-11 22:41:00,82.1,75.7,29.89,East,81,6.0,21.0,81,0.00,,,0.00,VWS V14.01,2013-10-12 04:41:00,
2013-10-11 22:46:00,81.1,75.4,29.88,NE,49,5.0,21.0,83,0.00,,,0.00,VWS V14.01,2013-10-12 04:46:00,
2013-10-11 22:51:00,81.0,75.3,29.88,NE,49,5.0,21.0,83,0.00,,,0.00,VWS V14.01,2013-10-12 04:51:00,
2013-10-11 22:56:00,81.1,75.1,29.88,ENE,75,5.0,21.0,82,0.00,,,0.00,VWS V14.01,2013-10-12 04:56:00,
2013-10-11 23:00:00,81.3,75.7,29.88,NE,54,3.0,21.0,83,0.00,,,0.00,VWS V15.00,2013-10-12 05:00:00,
2013-10-11 23:01:00,81.3,75.7,29.88,NE,34,2.0,3.0,83,0.00,,,0.00,VWS V14.01,2013-10-12 05:01:00,
2013-10-11 23:06:00,81.4,75.7,29.88,NE,54,3.0,9.0,83,0.00,,,0.00,VWS V14.01,2013-10-12 05:06:00,
2013-10-11 23:11:00,81.4,76.1,29.88,ENE,69,0.0,9.0,84,0.00,,,0.00,VWS V14.01,2013-10-12 05:11:00,
2013-10-11 23:16:00,81.7,76.4,29.88,ENE,67,4.0,9.0,84,0.00,,,0.00,VWS V14.01,2013-10-12 05:16:00,
2013-10-11 23:21:00,81.9,76.6,29.88,NE,49,7.0,9.0,84,0.00,,,0.00,VWS V14.01,2013-10-12 05:21:00,
2013-10-11 23:26:00,82.2,76.2,29.88,ENE,68,5.0,9.0,82,0.00,,,0.00,VWS V14.01,2013-10-12 05:26:00,
2013-10-11 23:30:00,82.4,76.4,29.88,ENE,60,5.0,9.0,82,0.00,,,0.00,VWS V15.00,2013-10-12 05:30:00,
2013-10-11 23:31:00,82.4,76.0,29.88,ENE,61,3.0,5.0,81,0.00,,,0.00,VWS V14.01,2013-10-12 05:31:00,
2013-10-11 23:36:00,82.9,76.5,29.87,ENE,61,3.0,10.0,81,0.00,,,0.00,VWS V14.01,2013-10-12 05:36:00,
2013-10-11 23:41:00,83.2,76.8,29.87,ENE,63,8.0,11.0,81,0.00,,,0.00,VWS V14.01,2013-10-12 05:41:00,
2013-10-11 23:46:00,83.3,76.9,29.87,NE,51,6.0,12.0,81,0.00,,,0.00,VWS V14.01,2013-10-12 05:46:00,
2013-10-11 23:51:00,83.3,77.2,29.87,NE,51,5.0,14.0,82,0.00,,,0.00,VWS V14.01,2013-10-12 05:51:00,
2013-10-11 23:56:00,83.3,77.2,29.87,ENE,63,3.0,14.0,82,0.00,,,0.00,VWS V14.01,2013-10-12 05:56:00,